Preview of NWS' New Version of Forecast
This preview is not operational and should not be used for support decisions.
Latest weather observations around

South Lake Tahoe, Lake Tahoe Airport (KTVL)

Using English Units (Switch to International System of Units)
Date/ Time (PDT) Wind (mph) Vis. (mi) Weather Sky Cond. Temp (°F) Rel. Humidity Wind Chill (°F) Heat Index (°F) Pressure Precip. (in)
Air Dwpt 6 hour Altimeter (inHg) Sea level (inHg) 1 hr 3 hr 6 hr
Max Min
May 26 00:53 Calm 10 Clear CLR 35 34     96%     30.06 30      
May 25 23:53 Calm 10 Clear CLR 37 35     92%     30.07 30      
May 25 22:53 Calm 10 Mostly Clear FEW032 39 36     89%     30.09 30.02     0
May 25 21:53 S 8 10 Partly Cloudy SCT034 42 37     82% 37   30.1 30.02      
May 25 20:53 S 9 10 Cloudy SCT029 OVC037 44 37     76% 39   30.09 30.01      
May 25 20:29 SW 5 10 Cloudy BKN027 OVC032 45 36     71% 43   30.09        
May 25 19:53 6 10 Cloudy OVC030 45 37     74% 42   30.08 30   0  
May 25 18:53 S 9 10 Cloudy BKN036 OVC046 47 37     68% 43     29.98      
May 25 17:53 S 8 10 Cloudy OVC050 47 39     74% 43     29.99 0    
May 25 16:53 S 9 10 Cloudy SCT032 BKN040 OVC065 49 39     69% 45     29.99 0   0
May 25 16:33 S 7 10 Cloudy SCT025 BKN043 OVC065 48 39     71% 45       0    
May 25 16:21 SSW 7 10 Light Rain BKN023 BKN043 OVC070 48 39     71% 45       0    
May 25 15:53 S 11 10 Cloudy SCT025 BKN036 OVC065 50 40     68% 46     30      
May 25 15:12 S 8 10 Cloudy SCT026 BKN038 OVC065 48 39     71% 44            
May 25 15:00 S 8 10 Cloudy BKN026 OVC037 47 39     74% 43            
May 25 14:53 S 9 10 Cloudy SCT024 BKN030 OVC037 47 39     74% 43     30.02      
May 25 13:53 S 13 10 Cloudy BKN024 OVC034 47 38     71% 41   30.1 30.01      
May 25 12:53 S 11 10 Cloudy FEW027 OVC036 48 39     71% 43   30.08 29.99      
May 25 12:49 SSW 14 10 Cloudy SCT025 BKN036 OVC046 48 39     71% 43   30.08        
May 25 12:21 S 14 10 Cloudy BKN025 OVC032 49 40     71% 44   30.08        
May 25 11:53 S 10 10 Cloudy BKN034 OVC041 48 40     73% 43   30.07 29.98      
May 25 11:17 S 11 10 Cloudy FEW014 FEW021 OVC038 47 41     80% 42            
May 25 10:53 S 7 10 Cloudy SCT014 BKN023 OVC034 47 42     83% 44     29.98 0   0
May 25 10:25 S 8 10 Light Rain SCT013 BKN025 OVC038 47 42     83% 43   30.07   0    
May 25 10:14 S 6 10 Cloudy BKN013 BKN025 OVC046 47 42     83% 44   30.07   0    
May 25 09:53 Calm 10 Light Rain FEW011 BKN042 OVC060 47 42     83%     30.06 29.97 0    
May 25 09:16 E 5 10 Cloudy BKN012 OVC016 46 43     89% 44   30.06        
May 25 09:06 Calm 10 Cloudy BKN010 OVC017 45 42     90%     30.06        
May 25 09:00 ESE 5 10 Cloudy SCT010 OVC015 45 42     90% 43   30.06        
May 25 08:53 Calm 10 Cloudy FEW008 OVC013 46 42     86%     30.05 29.96 0    
May 25 08:16 SSE 3 10 Light Rain BKN011 OVC016 45 42     90% 44   30.05   0    
May 25 07:53 SSW 6 10 Cloudy OVC009 45 43     93% 42   30.05 29.96   0  
May 25 07:11 Calm 10 Cloudy FEW003 BKN007 OVC039 44 43     96%     30.04        
May 25 06:53 NE 3 10 Cloudy FEW003 BKN038 OVC070 44 43     96% 43   30.03 29.94 0    
May 25 06:44 Calm 10 Cloudy SCT003 BKN049 OVC070 44 43     96%     30.03   0    
May 25 06:02 Calm 9 Light Rain OVC042 43 43     100%     30.03   0    
May 25 05:53 NNE 3 4 Rain and Fog/Mist OVC040 43 43     100% 41   30.03 29.94 0    
May 25 05:43 Calm 6 Light Rain and Fog/Mist OVC040 44 43     96%     30.03   0    
May 25 05:29 Calm 4 Rain and Fog/Mist OVC040 44 43     96%     30.03   0    
May 25 05:20 S 3 6 Light Rain and Fog/Mist OVC038 44 42     93% 43   30.03   0    
May 25 05:14 S 3 4 Rain and Fog/Mist OVC036 44 43     96% 43   30.03   0    
May 25 04:53 S 8 4 Thunderstorms and Rain and Fog/Mist FEW019 SCT029 OVC035 45 43     93% 41   30.04 29.93 0   0
May 25 04:44 SSW 7 2.5 Thunderstorms and Heavy Rain and Fog/Mist FEW019 BKN030 OVC037 45 43     93% 41   30.04   0    
May 25 04:41 SSW 7 4 Thunderstorms and Heavy Rain and Fog/Mist FEW019 BKN029 OVC035 45 43     93% 41   30.04   0    
May 25 04:38 SSW 8 7 Thunderstorms and Rain FEW019 OVC031 46 42     86% 42   30.05   0    
May 25 04:34 SSW 8 10 Cloudy FEW019 BKN029 OVC038 46 44     93% 42   30.04   0    
May 25 04:19 SSW 3 6 Light Rain and Fog/Mist BKN031 OVC040 45 44     97% 44   30.03   0    
May 25 04:04 SSW 6 7 Light Rain BKN033 OVC043 45 44     97% 42   30.04   0    
May 25 03:53 Calm 6 Light Rain and Fog/Mist BKN040 OVC050 45 44     97%     30.03 29.92 0    
May 25 03:41 Calm 6 Light Rain and Fog/Mist SCT035 OVC046 45 44     97%     30.04   0    
May 25 03:29 Calm 3 Rain and Fog/Mist BKN035 BKN049 OVC070 44 44     100%     30.04   0    
May 25 02:53 Calm 7 Cloudy FEW002 BKN070 OVC095 44 43     96%     30.05        
May 25 02:34 Calm 8 Cloudy FEW003 BKN036 OVC090 44 43     96%     30.06        
May 25 01:53 Calm 6 Fog/Mist BKN040 BKN047 OVC060 44 43     96%     30.07 29.95      
May 25 01:34 Calm 7 Cloudy FEW002 BKN042 OVC065 44 44     100%     30.08        
May 25 01:17 S 5 4 Fog/Mist SCT002 OVC016 44 43     96% 41   30.08        
May 25 01:08 S 3 7 Cloudy OVC016 45 44     97% 44   30.09        
May 25 00:53 SSE 3 8 Cloudy OVC014 45 45     100% 44   30.09 29.96      
May 25 00:06 Calm 5 Fog/Mist SCT002 OVC014 45 45     100%     30.09        
May 25 00:01 Calm 3 Fog/Mist BKN002 BKN014 OVC029 45 45     100%     30.09        
May 24 23:53 S 3 1.75 Fog/Mist BKN002 BKN014 OVC029 45 45     100% 44   30.09 29.96      
May 24 23:51 S 5 1.75 Fog/Mist BKN002 BKN014 OVC029 45 45     100% 42   30.09        
May 24 23:44 S 3 3 Fog/Mist BKN002 BKN030 BKN035 45 45     100% 44   30.09        
May 24 23:42 S 3 2.5 Fog/Mist SCT002 BKN030 BKN035 45 45     100% 44   30.09        
May 24 23:34 S 5 0.5 Fog BKN001 BKN015 BKN027 45 45     100% 43   30.09        
May 24 23:27 Calm 1 Fog/Mist BKN001 BKN024 45 45     100%     30.09        
May 24 23:04 Calm 2.5 Fog/Mist BKN002 BKN021 46 45     96%     30.09        
May 24 22:53 Calm 4 Fog/Mist SCT002 SCT100 46 45     96%     30.09 29.97     0
May 24 22:44 Calm 3 Fog/Mist FEW002 SCT100 46 45     96%     30.1        
May 24 21:53 Calm 6 Fog/Mist FEW003 SCT085 SCT110 48 47     96%     30.1 29.98      
May 24 20:53 Calm 6 Fog/Mist FEW003 SCT085 OVC110 48 48     100%     30.1 29.98 0    
May 24 20:32 Calm 10 Cloudy FEW003 BKN055 OVC080 49 48     97%     30.1   0    
May 24 19:53 Calm 10 Mostly Cloudy BKN046 BKN120 49 48     97%     30.1 30.01 0 0  
May 24 19:09 SW 3 10 Light Rain SCT055 SCT065 OVC090 50 48     93% 49   30.1   0    
May 24 19:00 Calm 3 Light Rain and Fog/Mist BKN055 BKN065 OVC080 49 48     97%     30.1   0    
May 24 18:55 Calm 1 Rain and Fog/Mist SCT047 BKN060 OVC080 49 48     97%     30.1   0    
May 24 18:53 Calm 0.75 Rain and Fog/Mist BKN047 OVC060 49 48     97%     30.1 30.03 0    
May 24 18:46 Calm 1 Rain and Fog/Mist BKN047 OVC060 49 48     97%     30.11   0    
May 24 18:27 W 3 0.75 Thunderstorms and Heavy Rain and Fog/Mist BKN046 OVC065 49 48     97% 48   30.11   0    
May 24 18:20 W 3 2.5 Thunderstorms and Rain and Fog/Mist BKN050 OVC070 50 47     89%     30.1   0    
May 24 18:10 E 9 10 Thunderstorms and Rain OVC065 50 48     93% 46   30.1   0    
May 24 17:53 Calm 6 Light Rain and Fog/Mist BKN065 OVC075 50 49     96%     30.08 30.01 0    
May 24 17:04 Calm 10 Thunderstorms and Rain SCT039 BKN050 BKN090 55 53     93%     30.09   0    
May 24 16:53 Calm 10 Partly Cloudy FEW055 FEW090 SCT110 57 51     81%     30.07 29.98 0   0
May 24 15:53 Calm 10 Light Rain SCT050 BKN065 BKN080 56 53     90%     30.1   0    
May 24 15:48 Calm 10 Light Rain BKN060 OVC075 55 54     94%     30.11   0    
May 24 15:39 ESE 3 3 Light Rain and Fog/Mist BKN065 OVC085 54 52     93%     30.11   0    
May 24 15:26 Calm 1.75 Rain and Fog/Mist FEW060 BKN075 OVC110 54 52     93%     30.11   0    
May 24 15:21 Calm 4 Light Rain and Fog/Mist SCT065 BKN080 OVC100 55 52     89%     30.11   0    
May 24 15:13 Calm 10 Cloudy FEW025 BKN080 OVC100 55 50     83%     30.11   0    
May 24 15:06 Calm 10 Thunderstorms FEW035 SCT065 BKN075 55 51     86%     30.12   0    
May 24 14:58 3 3 Thunderstorms and Fog/Mist FEW039 BKN065 OVC080 53 51     93%     30.12   0    
May 24 14:53 SSE 3 1.5 Clear   50 50     100% 49   30.13   0    
May 24 14:50 Calm 1.25 Clear   48 48     100%     30.12   0    
Notice The following observation data may not be complete
May 24 14:39 WNW 3 0.75 Thunderstorms and Heavy Rain and Fog/Mist SCT049 BKN070 OVC085   46      %     30.12   0    
May 24 14:33 5 2.5 Thunderstorms and Heavy Rain FEW044 BKN060 OVC110 55 48     77%     30.13   0    
May 24 14:27 E 7 8 Thunderstorms and Rain SCT060 BKN075 OVC110 57 50     77%     30.12   0    
May 24 14:17 ENE 9 10 Mostly Cloudy FEW065 BKN085 BKN110 60 48     64%     30.12        
May 24 13:53 NE 10 10 Thunderstorms BKN046 OVC065 61 49     64%     30.12 30.01 0 0  
May 24 12:53 N 6 10 Mostly Cloudy FEW050 SCT065 BKN080 63 45     52%     30.12 30      
May 24 11:53 Calm 10 Mostly Cloudy BKN070 62 47     58%     30.12 30      
May 24 10:53 3 10 Mostly Cloudy BKN060 60 46     60%     30.13 30.01      
May 24 09:53 5 10 Cloudy OVC055 57 44     62%     30.13 30.02      
May 24 08:53 Calm 10 Mostly Clear FEW049 55 44     66%     30.14 30.02      
May 24 07:53 S 5 10 Clear CLR 46 43     89% 44   30.14 30.03      
May 24 06:53 S 3 10 Clear CLR 38 37     97% 36   30.13 30.04      
May 24 05:53 S 3 10 Clear CLR 36 35     96% 33   30.13 30.03      
May 24 04:53 Calm 10 Clear CLR 37 36     96%     30.12 30.02      
May 24 03:53 Calm 10 Clear CLR 38 37     97%     30.12        
May 24 02:53 Calm 10 Clear CLR 39 38     96%     30.13 30.01      
May 24 01:53 Calm 10 Clear CLR 40 39     97%     30.14 30.03      
May 24 00:53 Calm 10 Clear CLR 41 40     96%     30.13 30.02      
May 23 23:53 Calm 10 Clear CLR 43 42     97%     30.13 30.01      
May 23 22:53 Calm 10 Clear CLR 45 43     93%     30.12 29.99      
May 23 21:53 Calm 10 Clear CLR 47 45     93%     30.11 29.99      
May 23 20:53 Calm 10 Clear CLR 49 45     86%     30.09 29.97      
May 23 19:53 Calm 10 Clear CLR 54 47     77%     30.07 29.95      
May 23 18:53 SSW 9 10 Clear CLR 58 45     62%     30.05 29.93      
May 23 17:53 5 10 Partly Cloudy SCT040 60 44     55%     30.04 29.92      
May 23 16:53 Calm 10 Mostly Cloudy SCT033 BKN043 60 47     62%     30.04 29.91 0   0
May 23 16:04 Calm 8 Light Rain FEW049 BKN060 OVC075 55 48     77%     30.04   0    
May 23 15:53 Calm 4 Light Rain FEW045 BKN070 BKN090 55 48     77%     30.04   0    
May 23 14:53 SSW 8 10 Mostly Cloudy BKN100 62 43     50%     30.02 29.89      
May 23 13:53 Calm 10 Cloudy SCT043 BKN050 OVC100 61 44     54%     30.02 29.89   0  
May 23 12:53 6 10 Mostly Cloudy FEW041 SCT049 BKN100 62 45     53%     30.02 29.89 0    
May 23 11:53 NE 6 10 Cloudy BKN040 OVC100 61 43     52%     30.03 29.9      
May 23 10:53 Calm 10 Cloudy FEW028 BKN036 OVC046 60 46     60%     30.03 29.89      
May 23 09:53 S 7 10 Cloudy SCT032 OVC040 58 44     60%     30.03 29.89      
May 23 08:53 S 3 10 Cloudy OVC100 54 46     74%     30.03 29.91      
May 23 07:53 Calm 10 Cloudy OVC095 49 45     86%     30.03 29.91      
May 23 06:53 Calm 10 Clear CLR 45 43     93%     30.02 29.91      
May 23 05:53 Calm 10 Cloudy FEW070 OVC100 45 44     97%     30 29.88      
May 23 04:53 SSE 3 10 Cloudy OVC065 47 44     90% 46   30 29.87      
May 23 03:53 Calm 10 Cloudy OVC055 47 44     90%     30.01 29.87      
May 23 02:53 Calm 10 Mostly Cloudy BKN055 45 43     93%     30 29.88      
May 23 01:53 Calm 10 Mostly Cloudy SCT065 BKN090 48 45     89%     30 29.86      
May 23 00:53 Calm 10 Cloudy OVC060 48 45     89%     30 29.88      
May 22 23:53 SSE 5 10 Mostly Cloudy BKN060 BKN090 50 46     86% 48   30.01 29.88      
May 22 22:53 Calm 10 Cloudy FEW038 BKN060 OVC085 51 46     83%     30.02 29.89     0
May 22 21:53 Calm 10 Cloudy FEW029 BKN060 OVC075 52 46     80%     30.02 29.89 0    
May 22 20:53 Calm 10 Cloudy OVC080 52 47     83%     30.01 29.88      
May 22 19:53 NE 5 10 Cloudy FEW060 BKN075 OVC090 55 46     72%     30 29.88      
May 22 18:53 NE 10 10 Mostly Cloudy SCT060 BKN080 56 47     72%     29.98 29.87      
May 22 17:53 NE 9 10 Partly Cloudy FEW046 SCT100 58 47     67%     29.97 29.85      
May 22 16:53 NNE 9 10 Mostly Clear FEW046 FEW055 62 39     43%     29.97 29.84      
May 22 15:53 Calm 10 Partly Cloudy SCT120 64 39     40%     29.96 29.83      
May 22 15:48 5 10 Mostly Clear FEW120 64 41     42%     29.96        
May 22 15:28 3 10 Mostly Clear FEW110 63 39     41%     29.96        
May 22 14:53 NNE 8 10 Mostly Cloudy BKN090 61 44     54%     29.98 29.85      
May 22 13:53 NE 11 10 Partly Cloudy SCT080 62 42     48%     29.99 29.86      
May 14 08:53 ENE 3 10 Mostly Clear FEW013 49 42     77% 48   30.08 29.98      
May 13 13:53 Calm 10 Mostly Cloudy BKN042 55 37     51%     30.05 29.96      
May 12 08:53 NE 7 10 Cloudy OVC037 44 28     53% 40   29.94 29.86      
May 12 06:53 SSW 5 10 Clear CLR 32 27     81% 27   29.94 29.88      
May 12 05:53 Calm 10 Clear CLR 33 27     78%     29.92 29.85      
Jun 11 19:53 3 10 Clear   35 30     82% 32     29.86 0 0  
Jun 11 18:53 S 9 10 Mostly Cloudy FEW035 BKN045 BKN055 38 26     62% 31     29.84 0    
Jun 11 17:53 S 14 10 Cloudy BKN025 BKN030 OVC045 38 29     70% 30   29.9 29.84 0    
Jun 11 09:53 S 15 10 Mostly Cloudy BKN045 BKN055 46 27     47% 40     29.71      
Jun 10 20:53 S 11 10 Mostly Cloudy SCT029 BKN037 45 33     63% 39     29.79      
Jun 10 16:53 S 18 10 Clear CLR 54 26     34%       29.79      
Jun 09 11:53   5 Light Rain SCT030 BKN037 OVC048 53 48     83%       29.83 0    
Jun 09 09:53   10 Mostly Cloudy SCT036 BKN045 54 40     59%       29.83      
Jun 08 04:53   10 Partly Cloudy SCT110 53 28     38%       29.83      
Jun 07 22:53 SSW 3 10 Clear CLR 54 27     35%       29.9      
Jun 07 09:53   10 Clear CLR 66 37     34%       29.93      
Jun 05 19:53 Calm 10 Clear   61 38     42%       30